Retour au catalogue

COSMOS 2234

GLONASS

ActifNavigationMEO
NORAD 22512·PAYLOAD·🇷🇺 Russia

Lancé Feb 17, 1993 depuis Baikonur Cosmodrome

Loading…

Prochains Passages (prochaines 24 heures)

TLE

FraisSource: Space-Track

Époque: Sep 14, 2026, 13:31 UTC

1 22512U 93010A   26257.56362380 -.00000014  00000-0  00000+0 0  9995
2 22512  64.9610  67.0166 0022875 213.7850 141.8424  2.13103582261037

Suivez COSMOS 2234 en temps réel avec AllMySat

Download on the App Store